Oxnard, CA

9:59 PM PST on February 11, 2016 (GMT -0800)
Oxnard

Weather History for KOXR - November, 2013

Change the Weather History Date:

Thursday, November 7, 2013

  Actual Average Record
Temperature  
Mean Temperature 64 °F -  
Max Temperature 77 °F 70 °F 92 °F (1955)
Min Temperature 51 °F 49 °F 43 °F (1959)
Degree Days  
Heating Degree Days 1    
Growing Degree Days 14 (Base 50)    
Moisture  
Dew Point 39 °F    
Average Humidity 50    
Maximum Humidity 93    
Minimum Humidity 15    
Precipitation  
Precipitation 0.00 in - - ()
Sea Level Pressure  
Sea Level Pressure 30.05 in    
Wind  
Wind Speed 4 mph (NNW)    
Max Wind Speed 14 mph    
Max Gust Speed 23 mph    
Visibility 10 miles    
Events      
Averages and records for this station are not official NWS values.
T = Trace of Precipitation, MM = Missing Value Source: NWS Daily Summary

Daily Weather History Graph

Daily Weather History Graph

Search for Another Location

Airport or City:

Trip Planner

Search our weather history database for the weather conditions in past years. The results will help you decide how hot, cold, wet, or windy it might be!

Date:

Astronomy

Nov. 07, 2013 Rise Set
Actual Time 6:22 AM PST 4:58 PM PST
Civil Twilight 5:56 AM PST 5:24 PM PST
Nautical Twilight 5:26 AM PST 5:54 PM PST
Astronomical Twilight 4:56 AM PST 6:23 PM PST
Moon 10:33 AM PST (11/7) 9:16 PM PST (11/7)
Length of Visible Light 11h 28m
Length of Day
10h 35m
Waxing Crescent, 24% of the Moon is Illuminated
Nov 7
Waxing Crescent
Nov 9
First Quarter
Nov 17
Full
Nov 25
Last Quarter
Dec 2
New

Hourly Weather History & Observations

Time (PST) Temp. Dew Point Humidity Pressure Visibility Wind Dir Wind Speed Gust Speed Precip Events Conditions
12:51 AM 51.1 °F 37.0 °F 59% 30.10 in 10.0 mi Calm Calm - N/A   Clear
1:51 AM 51.1 °F 34.0 °F 52% 30.09 in 10.0 mi Calm Calm - N/A   Clear
2:51 AM 52.0 °F 33.1 °F 49% 30.09 in 10.0 mi Calm Calm - N/A   Clear
3:51 AM 53.1 °F 33.1 °F 47% 30.08 in 10.0 mi NNE 3.5 mph - N/A   Clear
4:51 AM 57.9 °F 24.1 °F 27% 30.07 in 10.0 mi NE 5.8 mph - N/A   Clear
5:51 AM 59.0 °F 21.9 °F 24% 30.08 in 10.0 mi NE 8.1 mph - N/A   Clear
6:51 AM 54.0 °F 28.0 °F 37% 30.10 in 10.0 mi NW 3.5 mph - N/A   Clear
7:51 AM 66.9 °F 23.0 °F 19% 30.11 in 10.0 mi NE 6.9 mph - N/A   Clear
8:51 AM 72.0 °F 24.1 °F 17% 30.10 in 10.0 mi ENE 6.9 mph - N/A   Clear
9:51 AM 77.0 °F 26.1 °F 15% 30.10 in 10.0 mi ENE 4.6 mph - N/A   Clear
10:51 AM 72.0 °F 37.9 °F 29% 30.09 in 10.0 mi West 8.1 mph - N/A   Clear
11:51 AM 73.0 °F 34.0 °F 24% 30.07 in 10.0 mi West 12.7 mph - N/A   Clear
12:51 PM 71.1 °F 44.1 °F 38% 30.04 in 10.0 mi West 11.5 mph - N/A   Clear
1:51 PM 72.0 °F 41.0 °F 33% 30.03 in 10.0 mi WNW 13.8 mph - N/A   Clear
2:51 PM 68.0 °F 46.0 °F 45% 30.02 in 10.0 mi West 12.7 mph - N/A   Clear
3:51 PM 66.0 °F 46.9 °F 50% 30.01 in 10.0 mi West 10.4 mph 23.0 mph N/A   Clear
4:51 PM 64.0 °F 46.0 °F 52% 30.00 in 10.0 mi WNW 10.4 mph 23.0 mph N/A   Clear
5:51 PM 60.1 °F 55.9 °F 86% 30.01 in 10.0 mi WNW 3.5 mph - N/A   Clear
6:51 PM 60.1 °F 57.0 °F 90% 30.01 in 10.0 mi NNW 3.5 mph - N/A   Clear
7:51 PM 57.0 °F 55.0 °F 93% 30.01 in 9.0 mi WNW 3.5 mph - N/A   Clear
8:51 PM 55.0 °F 53.1 °F 93% 30.01 in 8.0 mi WNW 4.6 mph - N/A   Clear
9:51 PM 53.1 °F 50.0 °F 89% 30.01 in 10.0 mi Calm Calm - N/A   Clear
10:51 PM 53.1 °F 46.9 °F 80% 30.00 in 10.0 mi Calm Calm - N/A   Clear
11:51 PM 54.0 °F 37.9 °F 55% 29.99 in 10.0 mi NNE 3.5 mph - N/A   Clear